Flag for U.S.A. Weather past 2 weeks in Denver, Colorado, U.S.A.

Now
59 °F

Thunderstorms. Mostly cloudy.


Feels Like: 55 °F
Forecast: 53 / 71 °F
Wind: 16 mph from North

Location: Buckley Air Force Base

Current Time: Aug 27, 2014 at 9:18:52 PM

Latest Report: Aug 27, 2014 at 8:58 PM


Visibility: 7 mi

Pressure: 30.01 "Hg

Humidity: 79%

Dew point: 52 °F

Location of DenverLocation

Historic Weather in Denver — Graph

°F

Denver temperature yesterday

Maximum temperature yesterday: 77 °F (at 1:58 PM)
Minimum temperature yesterday: 57 °F (at 5:58 AM)
Average temperature yesterday: 64 °F

Past Weeks' High & Low Weather Summary

 TemperatureHumidityPressure
High90 °F (Aug 19, 2:58 PM)100% (Aug 26, 3:58 AM)30.23 "Hg (Aug 26, 3:58 AM)
Low52 °F (Aug 25, 6:58 AM)17% (Aug 16, 4:58 PM)29.67 "Hg (Aug 19, 2:58 PM)
Average69 °F57%29.91 "Hg
* Reported Aug 12 7:58 PM — Aug 27 7:58 PM, Denver, Weather by CustomWeather, © 2014

Note: Actual official high and low records may vary slightly from our data, if they occured in-between our weather recording intervals... More about our weather records

Advertising

Denver weather history for previous 24 hours

 ConditionsComfort  
Time TempWeatherWind HumidityBarometerVisibility
7:58 PM
Aug 27
65 °FThunderstorms. Broken clouds.14 mph67%29.97 "Hg10 mi
6:58 PM66 °FThundershowers. Broken clouds.9 mph63%29.95 "Hg10 mi
5:58 PM68 °FScattered showers. Broken clouds.20 mph63%29.94 "Hg10 mi
4:58 PM72 °FThundershowers. Broken clouds.15 mph56%29.91 "Hg10 mi
3:58 PM77 °FScattered showers. Broken clouds.6 mph44%29.91 "Hg10 mi
2:58 PM75 °FBroken clouds.3 mph52%29.93 "Hg10 mi
1:58 PM74 °FScattered clouds.12 mph51%29.94 "Hg10 mi
12:58 PM72 °FScattered clouds.7 mph57%29.95 "Hg10 mi
11:58 AM70 °FScattered clouds.8 mph64%29.98 "Hg10 mi
10:58 AM67 °FPartly sunny.2 mph68%30.01 "Hg10 mi
9:58 AM63 °FPartly sunny.5 mph76%30.03 "Hg10 mi
8:58 AM62 °FPartly sunny.2 mph76%30.02 "Hg10 mi
7:58 AM60 °FPartly sunny.5 mph86%30.01 "Hg10 mi
6:58 AM59 °FPassing clouds.3 mph89%30.00 "Hg10 mi
5:58 AM58 °FPassing clouds.7 mph94%30.00 "Hg10 mi
4:58 AM59 °FPassing clouds.2 mph89%29.98 "Hg10 mi
3:58 AM59 °FPartly cloudy.2 mph91%29.99 "Hg10 mi
2:58 AM60 °FOvercast.10 mph89%29.98 "Hg10 mi
1:58 AM60 °FPartly cloudy.12 mph89%29.99 "Hg10 mi
12:58 AM63 °FPartly cloudy.15 mph72%30.03 "Hg10 mi
11:58 PM
Aug 26
62 °FPassing clouds.6 mph74%30.03 "Hg10 mi
10:58 PM62 °FPassing clouds.9 mph74%30.05 "Hg10 mi
9:58 PM61 °FPassing clouds.7 mph79%30.06 "Hg10 mi
Weather by CustomWeather, © 2014

See weather overviewHow to use our weather pages